[[{"header":{"parameterUnit":"m.s-1","parameterCategory":2,"la1":30.2991,"la2":30.254,"lo1":-89.0895,"lo2":-89.0444,"dy":0.0017,"dx":0.0017,"nx":28,"ny":28,"refTime":"2025-06-19T21:00:00:Z","depth":"0","parameterNumber":2,"parameterNumberName":"U-component_of_CURRENTS"},"data":[0,0,0,0,0,0,0,0,0,0,0,0,0,0,0,0,0,0,0,0,0,0,0,0,0,0,0,0,0,0,0,0,0,0,0,0,0,0,0,0,0,0,0,0,0,0,0,0,0,0,0,0,0,0,0,0,0,0,0.388,0.388,0,0.3873,0.3873,0.3873,0.3861,0.3861,0.3861,0.3861,0.3924,0.3926,0.3928,0,0,0,0,0,0,0,0,0,0,0,0,0,0.3876,0.3876,0.388,0.388,0.388,0.3873,0.3873,0.3873,0.3861,0.3861,0.3861,0.386,0.3924,0.3926,0.3928,0,0,0,0,0,0,0,0,0,0,0,0,0,0.3873,0.3876,0.388,0.3874,0.3874,0.3873,0.3873,0.3873,0.3861,0.3861,0.3861,0.386,0.3923,0.3926,0.3928,0.3948,0,0,0.3936,0.3938,0,0,0,0,0,0,0,0,0.3873,0.3873,0.3875,0.3874,0.3874,0.3869,0.3895,0.3902,0.3861,0.3864,0.3861,0.386,0.3913,0.3917,0.3913,0.3951,0.3954,0.3937,0.3938,0.394,0.394,0,0,0,0,0,0,0,0.3874,0.3873,0.3876,0.3875,0.3874,0.387,0.3869,0.3896,0.389,0.3864,0.3863,0.3865,0.3913,0.391,0.3915,0.3955,0.3937,0.3939,0.3941,0.3942,0.4066,0.4067,0,0,0,0,0,0,0.3878,0.3874,0.3876,0.3876,0.3875,0.387,0.387,0.387,0.3888,0.3891,0.3865,0.3864,0.3906,0.3911,0.3917,0.3961,0.3939,0.3942,0.3944,0.4064,0.4066,0.4068,0,0,0,0,0,0,0.3878,0.3878,0.3876,0.3876,0.3875,0.3871,0.3871,0.387,0.3867,0.3889,0.3892,0.3864,0.3906,0.3913,0.3942,0.3963,0.3943,0.3946,0.4062,0.4065,0.4067,0.4039,0,0,0,0,0,0,0.3877,0.3878,0.388,0.3876,0.3876,0.3873,0.3871,0.387,0.3869,0.3868,0.3889,0.3894,0.3906,0.3938,0.3945,0.3967,0.3948,0.406,0.4063,0.4066,0.4037,0.404,0.4042,0,0,0,0,0,0.3877,0.3876,0.388,0.3881,0.3879,0.3873,0.3872,0.3867,0.3869,0.3865,0.3884,0.3894,0.3964,0.394,0.3948,0.3972,0.4058,0.4062,0.4066,0.4036,0.4039,0.4042,0,0,0,0,0,0,0.3877,0.3875,0.3879,0.3878,0.3877,0.3871,0.3865,0.3869,0.3878,0.388,0.3902,0.3909,0.3951,0.3968,0.3942,0.4022,0.4019,0.4024,0.3994,0.3997,0.3999,0.3993,0.395,0,0,0,0,0,0.3879,0.3876,0.3877,0.3876,0.3873,0.3872,0.387,0.3869,0.3877,0.3879,0.3895,0.3929,0.3974,0.3987,0.4024,0.4053,0.4102,0.4081,0.4083,0.4085,0.4088,0.419,0.4201,0.408,0.408,0.408,0,0,0.3879,0.3878,0.3877,0.3876,0.3871,0.3862,0.3869,0.3863,0.3863,0.3889,0.3893,0.3937,0.3987,0.4025,0.4046,0.4037,0.4145,0.409,0.409,0.4093,0.4195,0.4206,0.4217,0.4083,0.4082,0.4082,0,0,0.3866,0.3875,0.3861,0.3858,0.3855,0.3857,0.3856,0.3853,0.3857,0.3872,0.3908,0.3959,0.3997,0.4043,0.4073,0.4114,0.416,0.4134,0.4127,0.4225,0.4235,0.4245,0.4314,0.4331,0.4126,0.4125,0.4125,0,0.3863,0.3847,0.3857,0.3842,0.3836,0.3853,0.3836,0.3847,0.3856,0.387,0.387,0.397,0.4009,0.4082,0.41,0.4118,0.4173,0.4104,0.4226,0.4237,0.4248,0.4317,0.4335,0.4125,0.4125,0.4125,0.4125,0,0.3839,0.3824,0.3814,0.3802,0.3804,0.379,0.3807,0.3815,0.3828,0.3847,0.3911,0.397,0.4029,0.4063,0.4091,0.4192,0.4207,0.4222,0.4211,0.4258,0.4328,0.4347,0.4123,0.4124,0.4124,0.4124,0,0,0.3823,0.3797,0.3792,0.377,0.3777,0.3768,0.3785,0.38,0.3811,0.3851,0.3884,0.3979,0.4019,0.4059,0.4116,0.4202,0.4324,0.4239,0.4245,0.4293,0.4532,0.4416,0.4426,0.4364,0.4367,0.437,0.4547,0,0.379,0.3745,0.3753,0.3715,0.3687,0.3716,0.3726,0.3755,0.3788,0.3828,0.3919,0.3974,0.4015,0.4052,0.4148,0.4288,0.4376,0.4274,0.4493,0.4499,0.4379,0.4445,0.4183,0.4309,0.4566,0.457,0.4572,0,0.3755,0.3726,0.3681,0.3653,0.3646,0.364,0.366,0.3674,0.3753,0.3785,0.3866,0.3935,0.407,0.4097,0.4344,0.4279,0.4405,0.4507,0.4517,0.4431,0.4419,0.4309,0.4335,0.4196,0.4602,0.46,0.4598,0,0.3718,0.3671,0.363,0.362,0.3606,0.3601,0.3604,0.366,0.3672,0.3767,0.3798,0.3951,0.4029,0.4219,0.4395,0.4396,0.4659,0.4684,0.4698,0.4691,0.4521,0.4492,0.4422,0.4869,0.4869,0.4869,0.4868,0,0.3672,0.3632,0.3602,0.3576,0.3535,0.3552,0.3539,0.357,0.3629,0.3659,0.3773,0.3835,0.4069,0.4225,0.4406,0.4587,0.4667,0.4712,0.4737,0.4501,0.447,0.4383,0.434,0.4875,0.4874,0.4872,0.4871,0,0.3633,0.3613,0.3555,0.3524,0.3512,0.3485,0.3476,0.3476,0.3539,0.359,0.3621,0.3777,0.397,0.4172,0.4473,0.457,0.4633,0.4816,0.4498,0.4481,0.4346,0.4311,0.4215,0.412,0.4882,0.488,0.4878,0,0.3607,0.3573,0.3514,0.3477,0.3456,0.3419,0.3401,0.3431,0.344,0.3555,0.3583,0.3751,0.3851,0.4188,0.4374,0.462,0.4552,0.4532,0.4487,0.43,0.4284,0.417,0.409,0.4265,0.4259,0.4254,0.425,0,0.3558,0.354,0.35,0.3425,0.338,0.3329,0.3307,0.3303,0.3364,0.3397,0.3475,0.3556,0.3805,0.3911,0.4173,0.4308,0.4251,0.4434,0.4335,0.3866,0.3646,0.3576,0.418,0.4203,0.4208,0.4211,0.4214,0.4216,0.3528,0.3489,0.3438,0.3362,0.3307,0.3247,0.3183,0.3184,0.3177,0.3182,0.333,0.3338,0.3492,0.3802,0.3909,0.3869,0.398,0.3824,0.3826,0.3752,0.3541,0.402,0.4004,0.4007,0.401,0.4013,0.4015,0,0.3472,0.3434,0.3373,0.3268,0.3176,0.3173,0.3117,0.3034,0.2985,0.2993,0.301,0.3017,0.3091,0.3231,0.3329,0.3278,0.3193,0.3208,0.2979,0.2963,0.3466,0.3312,0.3025,0.3025,0.3025,0.3026,0.3026,0.3026,0.3441,0.3366,0.3329,0.3165,0.3087,0.2919,0.2868,0.2766,0.2712,0.257,0.2484,0.2533,0.271,0.2818,0.2771,0.2735,0.2601,0.246,0.2577,0.2894,0.2951,0.3004,0.2848,0.2468,0.2467,0.1907,0.1902,0.1899]},{"header":{"parameterUnit":"m.s-1","parameterCategory":2,"la1":30.2991,"la2":30.254,"lo1":-89.0895,"lo2":-89.0444,"dy":0.0017,"dx":0.0017,"nx":28,"ny":28,"refTime":"2025-06-19T21:00:00:Z","depth":"0","parameterNumber":3,"parameterNumberName":"V-component_of_CURRENTS"},"data":[0,0,0,0,0,0,0,0,0,0,0,0,0,0,0,0,0,0,0,0,0,0,0,0,0,0,0,0,0,0,0,0,0,0,0,0,0,0,0,0,0,0,0,0,0,0,0,0,0,0,0,0,0,0,0,0,0,0,0.0683,0.0683,0,0.0742,0.0743,0.0744,0.075,0.075,0.0749,0.0748,0.0737,0.0737,0.0738,0,0,0,0,0,0,0,0,0,0,0,0,0,0.0605,0.0606,0.0683,0.0683,0.0684,0.0742,0.0743,0.0744,0.0751,0.075,0.0749,0.0748,0.0737,0.0737,0.0738,0,0,0,0,0,0,0,0,0,0,0,0,0,0.065,0.0607,0.0682,0.0694,0.0695,0.0742,0.0743,0.0744,0.0751,0.075,0.0749,0.0748,0.0737,0.0737,0.0738,0.076,0,0,0.0739,0.0739,0,0,0,0,0,0,0,0,0.0647,0.0653,0.0691,0.0693,0.0695,0.0737,0.0711,0.0746,0.0751,0.073,0.0748,0.0747,0.0731,0.0732,0.0747,0.0759,0.0759,0.0739,0.0739,0.0739,0.074,0,0,0,0,0,0,0,0.0644,0.065,0.0707,0.0692,0.0694,0.0706,0.0711,0.0718,0.0735,0.0732,0.0733,0.0739,0.0731,0.0747,0.0747,0.0759,0.0739,0.0739,0.074,0.074,0.0772,0.0773,0,0,0,0,0,0,0.0635,0.0647,0.0705,0.0709,0.0667,0.0708,0.0714,0.0725,0.0736,0.0737,0.0739,0.0739,0.0746,0.0746,0.0746,0.0778,0.0739,0.074,0.074,0.0771,0.0772,0.0773,0,0,0,0,0,0,0.0633,0.064,0.0702,0.0678,0.0687,0.071,0.0723,0.0727,0.0741,0.0742,0.0742,0.0749,0.0746,0.0745,0.0764,0.0777,0.074,0.0741,0.0771,0.0772,0.0772,0.0838,0,0,0,0,0,0,0.0631,0.0639,0.0647,0.0678,0.0688,0.0734,0.0724,0.0729,0.0746,0.0746,0.0751,0.0749,0.0745,0.0763,0.0764,0.0777,0.0741,0.077,0.0771,0.0772,0.0835,0.0841,0.0846,0,0,0,0,0,0.0628,0.0644,0.0647,0.0654,0.0697,0.0735,0.0742,0.0755,0.0747,0.0763,0.0769,0.0749,0.077,0.0765,0.0766,0.0779,0.0769,0.0771,0.0772,0.0833,0.084,0.0846,0,0,0,0,0,0,0.0617,0.0647,0.0651,0.0675,0.0704,0.0736,0.075,0.0759,0.0778,0.0772,0.0768,0.0768,0.0788,0.0774,0.0768,0.0788,0.0761,0.0763,0.0807,0.0814,0.0819,0.0816,0.0741,0,0,0,0,0,0.0618,0.0635,0.0667,0.0687,0.0699,0.0725,0.0741,0.0752,0.0772,0.0779,0.0787,0.0787,0.0796,0.0797,0.0803,0.082,0.0788,0.0823,0.0829,0.0834,0.0831,0.0801,0.0803,0.0777,0.0777,0.0777,0,0,0.062,0.0638,0.0648,0.0686,0.0705,0.074,0.0732,0.076,0.079,0.0774,0.0813,0.0811,0.0805,0.0829,0.0834,0.0818,0.0825,0.0835,0.084,0.0834,0.0802,0.0805,0.0807,0.0778,0.0778,0.0778,0,0,0.0634,0.0648,0.0667,0.0694,0.0726,0.0748,0.0756,0.0793,0.0808,0.0846,0.084,0.0848,0.0865,0.0868,0.0868,0.0904,0.0859,0.0899,0.0923,0.0895,0.0897,0.0898,0.0864,0.0862,0.0897,0.0898,0.0898,0,0.0632,0.0665,0.068,0.071,0.0737,0.0753,0.0788,0.0814,0.0855,0.0873,0.086,0.0889,0.0883,0.0908,0.0919,0.0917,0.0888,0.0903,0.0903,0.0903,0.0903,0.0867,0.0864,0.0901,0.0901,0.09,0.09,0,0.0666,0.0694,0.0709,0.0753,0.0786,0.0817,0.0855,0.0887,0.0901,0.0925,0.0954,0.095,0.0961,0.096,0.0952,0.0956,0.0931,0.0917,0.0887,0.091,0.0871,0.0866,0.0906,0.0904,0.0903,0.0903,0,0,0.0649,0.0718,0.0723,0.0754,0.0811,0.0842,0.0895,0.0949,0.0985,0.1002,0.1044,0.1045,0.1032,0.1029,0.1015,0.0989,0.0967,0.0953,0.095,0.0922,0.0896,0.086,0.085,0.0951,0.0951,0.095,0.087,0,0.0668,0.0729,0.0764,0.083,0.0865,0.0906,0.096,0.101,0.1043,0.109,0.1076,0.1106,0.1062,0.1068,0.1035,0.1,0.0957,0.099,0.0876,0.0873,0.0839,0.0845,0.0839,0.0766,0.0865,0.0864,0.0864,0,0.0686,0.0725,0.0788,0.0872,0.0892,0.0936,0.102,0.1072,0.1135,0.116,0.1173,0.1172,0.116,0.111,0.1026,0.1048,0.0968,0.0921,0.0917,0.0854,0.0827,0.0758,0.0753,0.0643,0.0855,0.0856,0.0857,0,0.0665,0.0744,0.0794,0.0822,0.0917,0.0954,0.1008,0.1086,0.1145,0.1202,0.1245,0.1222,0.1222,0.1128,0.1035,0.1027,0.0931,0.0908,0.0791,0.0787,0.0745,0.0738,0.0621,0.0817,0.0817,0.0817,0.0818,0,0.0674,0.0714,0.0785,0.0815,0.0881,0.0949,0.1032,0.1086,0.1178,0.1262,0.1268,0.1316,0.1223,0.1172,0.1058,0.0917,0.094,0.079,0.0763,0.0768,0.0765,0.0636,0.058,0.0814,0.0815,0.0816,0.0816,0,0.0655,0.07,0.0757,0.0844,0.0874,0.092,0.105,0.1124,0.1199,0.1308,0.1333,0.1379,0.1319,0.121,0.1073,0.0951,0.0756,0.0755,0.0766,0.0742,0.0524,0.0472,0.0331,0.0305,0.061,0.0609,0.0607,0,0.0659,0.0682,0.0761,0.08,0.0841,0.0924,0.1003,0.1114,0.121,0.1353,0.1415,0.1406,0.1426,0.1219,0.1011,0.08,0.0704,0.0637,0.0611,0.0503,0.0427,0.0411,0.0399,0.058,0.0579,0.0578,0.0577,0,0.0663,0.0679,0.0726,0.0797,0.087,0.0977,0.1097,0.1178,0.1332,0.1432,0.1559,0.1585,0.1411,0.1232,0.0948,0.0788,0.0574,0.0606,0.0494,0.0387,0.0363,0.033,0.0638,0.0568,0.0569,0.0569,0.057,0.057,0.0659,0.0683,0.0741,0.0812,0.0903,0.1046,0.1138,0.1288,0.1447,0.1622,0.1639,0.1687,0.1417,0.1045,0.0837,0.0441,0.0479,0.0328,0.0272,0.0265,0.0242,0.0525,0.0427,0.0428,0.0428,0.0428,0.0428,0,0.0659,0.0704,0.0767,0.0869,0.0978,0.1035,0.1223,0.1332,0.152,0.1653,0.1749,0.1618,0.1282,0.0927,0.0416,0.017,0.0108,0.0036,0.0012,0.0016,0.0258,0.0259,0.0123,0.0123,0.0123,0.0123,0.0123,0.0124,0.0671,0.0722,0.0763,0.0925,0.101,0.1164,0.1276,0.1429,0.1549,0.1686,0.1707,0.1718,0.146,0.058,0.0016,-0.0116,-0.0242,-0.0286,-0.0332,-0.018,-0.0157,-0.0134,-0.0146,-0.0365,-0.0366,-0.0519,-0.0521,-0.0523]}],[{"header":{"parameterUnit":"m.s-1","parameterCategory":2,"la1":30.2991,"la2":30.254,"lo1":-89.0895,"lo2":-89.0444,"dy":0.0017,"dx":0.0017,"nx":28,"ny":28,"refTime":"2025-06-19T21:00:00:Z","depth":"2","parameterNumber":2,"parameterNumberName":"U-component_of_CURRENTS"},"data":[0,0,0,0,0,0,0,0,0,0,0,0,0,0,0,0,0,0,0,0,0,0,0,0,0,0,0,0,0,0,0,0,0,0,0,0,0,0,0,0,0,0,0,0,0,0,0,0,0,0,0,0,0,0,0,0,0,0,0.2226,0.2227,0,0.2299,0.2299,0.23,0.2311,0.2311,0.2311,0.2311,0.2474,0.2478,0.2483,0,0,0,0,0,0,0,0,0,0,0,0,0,0.2165,0.2165,0.2226,0.2228,0.2229,0.2299,0.2299,0.23,0.2311,0.2311,0.2311,0.2311,0.2473,0.2478,0.2483,0,0,0,0,0,0,0,0,0,0,0,0,0,0.2202,0.2165,0.2226,0.2249,0.2253,0.2299,0.2299,0.23,0.2311,0.2311,0.2311,0.2311,0.2471,0.2477,0.2484,0.2521,0,0,0.2503,0.2506,0,0,0,0,0,0,0,0,0.22,0.2203,0.2244,0.2248,0.2252,0.2303,0.2338,0.2381,0.2311,0.228,0.2311,0.2311,0.2431,0.244,0.2441,0.2528,0.2535,0.2504,0.2508,0.251,0.2512,0,0,0,0,0,0,0,0.2197,0.2201,0.2247,0.2246,0.2251,0.2281,0.2284,0.2346,0.2349,0.2283,0.2286,0.2307,0.2432,0.2434,0.2445,0.2538,0.2504,0.2509,0.2513,0.2516,0.2797,0.28,0,0,0,0,0,0,0.2201,0.2198,0.2245,0.225,0.2235,0.2282,0.2286,0.228,0.2347,0.2358,0.2307,0.2307,0.2423,0.2438,0.2451,0.2601,0.251,0.2516,0.252,0.2793,0.2797,0.2801,0,0,0,0,0,0,0.2199,0.2203,0.2242,0.2234,0.2242,0.2283,0.2276,0.2281,0.2359,0.2365,0.2377,0.2389,0.2424,0.2442,0.2578,0.2604,0.2519,0.2525,0.2789,0.2794,0.2799,0.2837,0,0,0,0,0,0,0.2196,0.2201,0.2219,0.2233,0.2243,0.2291,0.2277,0.2283,0.2371,0.2374,0.2439,0.2449,0.2426,0.2569,0.2584,0.2612,0.253,0.2784,0.2791,0.2798,0.2831,0.2843,0.2854,0,0,0,0,0,0.2193,0.22,0.2219,0.2227,0.2258,0.2294,0.2301,0.2326,0.2376,0.2401,0.2479,0.2451,0.2621,0.2579,0.2596,0.2625,0.2781,0.2789,0.2797,0.2827,0.2841,0.2853,0,0,0,0,0,0,0.2202,0.2204,0.2223,0.2238,0.2282,0.2299,0.2334,0.2385,0.2465,0.2506,0.252,0.2535,0.2641,0.2663,0.2616,0.273,0.2689,0.2701,0.2705,0.2719,0.273,0.271,0.2535,0,0,0,0,0,0.2211,0.22,0.2239,0.2257,0.2285,0.2339,0.2375,0.2413,0.2478,0.2515,0.2547,0.2614,0.2676,0.2729,0.276,0.2863,0.2875,0.2891,0.2902,0.291,0.2911,0.2969,0.2984,0.2828,0.2828,0.2828,0,0,0.2217,0.2225,0.222,0.2258,0.2294,0.2317,0.2359,0.2441,0.2472,0.2527,0.259,0.2656,0.2714,0.2786,0.2837,0.2821,0.2969,0.2921,0.2927,0.2923,0.2979,0.2993,0.3006,0.2834,0.2833,0.2832,0,0,0.2226,0.2242,0.2247,0.2275,0.2355,0.2367,0.2417,0.248,0.2523,0.2627,0.2657,0.2761,0.2851,0.287,0.2906,0.3021,0.3015,0.3048,0.3099,0.3156,0.3168,0.3178,0.3227,0.3242,0.3064,0.3064,0.3064,0,0.2265,0.2249,0.2265,0.2289,0.2308,0.2397,0.2428,0.2475,0.2573,0.2642,0.2656,0.2832,0.287,0.298,0.3007,0.3036,0.3082,0.3033,0.3165,0.3176,0.3186,0.3233,0.3249,0.3067,0.3067,0.3066,0.3066,0,0.2251,0.2272,0.2287,0.2305,0.2327,0.2381,0.2432,0.2495,0.2581,0.2654,0.2809,0.2876,0.2991,0.3013,0.3051,0.3158,0.3173,0.3156,0.3115,0.3203,0.3249,0.3264,0.3071,0.307,0.3069,0.3068,0,0,0.2284,0.2279,0.2295,0.2303,0.2351,0.2368,0.2423,0.2513,0.2611,0.2715,0.2839,0.2949,0.3054,0.3103,0.3164,0.3218,0.3326,0.324,0.3242,0.3261,0.3475,0.3225,0.3217,0.3349,0.3352,0.3354,0.3482,0,0.2301,0.2296,0.2298,0.2317,0.2319,0.2381,0.2415,0.2519,0.2634,0.2765,0.2908,0.3047,0.3071,0.3171,0.3233,0.3309,0.3369,0.3293,0.3412,0.3416,0.3158,0.3226,0.2961,0.303,0.3497,0.3499,0.3501,0,0.2296,0.2288,0.2291,0.2311,0.233,0.2373,0.2464,0.2519,0.2721,0.2833,0.3014,0.3136,0.3287,0.3274,0.3436,0.3404,0.3454,0.3483,0.3488,0.3244,0.3191,0.3021,0.304,0.3526,0.3524,0.3523,0.3521,0,0.2258,0.2288,0.2276,0.228,0.2321,0.2386,0.2439,0.2592,0.2685,0.2915,0.3034,0.3228,0.3349,0.3439,0.353,0.3516,0.367,0.3645,0.3459,0.3444,0.3229,0.3186,0.3735,0.3735,0.3734,0.3734,0.3734,0,0.224,0.2266,0.2286,0.229,0.2357,0.2387,0.2525,0.2619,0.2796,0.2938,0.3104,0.3244,0.3401,0.3518,0.3574,0.3558,0.3713,0.3468,0.3454,0.3234,0.3192,0.3624,0.3609,0.3739,0.3738,0.3737,0.3736,0,0.2247,0.2235,0.2266,0.2318,0.2349,0.2424,0.2575,0.2676,0.2827,0.3007,0.3088,0.3303,0.3449,0.3552,0.3694,0.3577,0.3601,0.3557,0.3275,0.3218,0.3334,0.3321,0.3356,0.3348,0.3341,0.3336,0.3331,0,0.2238,0.2239,0.2297,0.2346,0.2417,0.2519,0.2594,0.2714,0.2813,0.3036,0.3119,0.3318,0.3423,0.3494,0.3385,0.3371,0.3541,0.3038,0.2901,0.3309,0.3294,0.3291,0.3287,0.2681,0.2671,0.2663,0.2657,0,0.2267,0.2316,0.2339,0.2412,0.2503,0.2565,0.2684,0.2728,0.2858,0.2964,0.309,0.3178,0.3235,0.3068,0.2991,0.2946,0.3,0.2862,0.3422,0.2759,0.2665,0.2652,0.2673,0.2586,0.2593,0.2599,0.2602,0.2605,0.2328,0.2366,0.2396,0.2483,0.2551,0.259,0.2603,0.2671,0.2725,0.276,0.291,0.2875,0.2818,0.2542,0.2479,0.2387,0.255,0.2393,0.2422,0.2459,0.2299,0.2191,0.1998,0.2001,0.2004,0.2007,0.2009,0,0.2347,0.24,0.2461,0.2509,0.254,0.2607,0.2624,0.2547,0.2512,0.253,0.253,0.2213,0.2073,0.2128,0.1833,0.1699,0.176,0.1672,0.1763,0.1828,0.1887,0.1705,0.1244,0.1242,0.1241,0.124,0,0,0.2355,0.2398,0.2403,0.2445,0.2505,0.2457,0.2429,0.2289,0.2217,0.2042,0.1944,0.1934,0.1979,0.1574,0.1482,0.1356,0.1617,0.1307,0.1904,0.2077,0.2136,0.2255,0.2038,0,0,0,0,0]},{"header":{"parameterUnit":"m.s-1","parameterCategory":2,"la1":30.2991,"la2":30.254,"lo1":-89.0895,"lo2":-89.0444,"dy":0.0017,"dx":0.0017,"nx":28,"ny":28,"refTime":"2025-06-19T21:00:00:Z","depth":"2","parameterNumber":3,"parameterNumberName":"V-component_of_CURRENTS"},"data":[0,0,0,0,0,0,0,0,0,0,0,0,0,0,0,0,0,0,0,0,0,0,0,0,0,0,0,0,0,0,0,0,0,0,0,0,0,0,0,0,0,0,0,0,0,0,0,0,0,0,0,0,0,0,0,0,0,0,0.0146,0.0146,0,0.017,0.017,0.017,0.0138,0.0137,0.0136,0.0135,0.0044,0.0043,0.0042,0,0,0,0,0,0,0,0,0,0,0,0,0,0.0097,0.0098,0.0146,0.0146,0.0146,0.017,0.017,0.017,0.0139,0.0137,0.0136,0.0134,0.0045,0.0043,0.0041,0,0,0,0,0,0,0,0,0,0,0,0,0,0.012,0.0099,0.0146,0.0133,0.0132,0.017,0.017,0.017,0.0139,0.0137,0.0135,0.0134,0.0045,0.0043,0.0041,0.0064,0,0,0.0035,0.0034,0,0,0,0,0,0,0,0,0.0118,0.0121,0.0135,0.0134,0.0133,0.0149,0.012,0.0129,0.0139,0.0136,0.0135,0.0133,0.007,0.0066,0.0076,0.0059,0.0055,0.0035,0.0034,0.0033,0.0032,0,0,0,0,0,0,0,0.0117,0.012,0.0155,0.0135,0.0134,0.0135,0.0136,0.0122,0.0111,0.0137,0.0134,0.0137,0.0068,0.0078,0.0073,0.0054,0.0035,0.0033,0.0032,0.0031,0.0036,0.0038,0,0,0,0,0,0,0.0115,0.0119,0.0154,0.0156,0.0121,0.0137,0.0138,0.0146,0.0113,0.0107,0.0139,0.0136,0.0082,0.0076,0.007,0.0096,0.0033,0.0031,0.003,0.0035,0.0037,0.0038,0,0,0,0,0,0,0.0114,0.0118,0.0154,0.0137,0.0142,0.014,0.0149,0.0147,0.015,0.0116,0.0108,0.0142,0.0081,0.0072,0.0077,0.0092,0.003,0.0028,0.0033,0.0036,0.0037,0.0148,0,0,0,0,0,0,0.0112,0.0117,0.0116,0.0138,0.0143,0.0181,0.015,0.0149,0.0155,0.0151,0.0116,0.0107,0.0079,0.008,0.0075,0.0088,0.0027,0.0032,0.0034,0.0037,0.0142,0.0153,0.0163,0,0,0,0,0,0.0111,0.0124,0.0116,0.012,0.0143,0.0182,0.0186,0.0177,0.0157,0.0171,0.0157,0.0107,0.0091,0.0081,0.0074,0.0087,0.0031,0.0034,0.0037,0.0138,0.0151,0.0162,0,0,0,0,0,0,0.0098,0.0123,0.0114,0.0132,0.0155,0.0176,0.0184,0.0183,0.0185,0.0173,0.0137,0.0128,0.0131,0.01,0.009,0.0095,0.0048,0.0049,0.0127,0.0139,0.0149,0.0156,0.0025,0,0,0,0,0,0.0096,0.0113,0.0137,0.015,0.0161,0.0173,0.0183,0.0184,0.0192,0.0191,0.0169,0.0146,0.0142,0.0134,0.0117,0.0131,0.0083,0.013,0.014,0.0149,0.015,0.0098,0.0103,0.0048,0.0048,0.0048,0,0,0.0096,0.0109,0.0118,0.0149,0.016,0.0197,0.0175,0.0199,0.0226,0.018,0.0197,0.0178,0.0153,0.0169,0.0166,0.0144,0.0145,0.0153,0.0161,0.0157,0.0101,0.0106,0.0111,0.005,0.005,0.0049,0,0,0.0117,0.0115,0.0142,0.0169,0.0195,0.0209,0.0218,0.0242,0.0245,0.0274,0.0244,0.0245,0.0232,0.0227,0.0221,0.0276,0.0198,0.0261,0.0321,0.0272,0.0275,0.0278,0.0245,0.0243,0.0269,0.0269,0.027,0,0.0108,0.0148,0.0156,0.0195,0.0219,0.0218,0.0261,0.0277,0.0298,0.0314,0.0285,0.0291,0.0261,0.0295,0.0315,0.0298,0.0259,0.0281,0.0284,0.0285,0.0286,0.0251,0.0248,0.0275,0.0274,0.0274,0.0273,0,0.0161,0.0191,0.0211,0.0258,0.0288,0.0324,0.0352,0.0371,0.0368,0.0387,0.0409,0.0385,0.039,0.0381,0.0367,0.0373,0.0341,0.0301,0.0253,0.0298,0.0259,0.0254,0.0283,0.0281,0.0279,0.0278,0,0,0.0147,0.0231,0.0235,0.0271,0.0325,0.0357,0.0404,0.0456,0.0492,0.0493,0.0542,0.0531,0.0515,0.0507,0.0482,0.0443,0.0422,0.0382,0.0377,0.0351,0.032,0.0304,0.0296,0.0377,0.0376,0.0376,0.0298,0,0.0182,0.0258,0.0296,0.0374,0.0418,0.0447,0.0497,0.054,0.0565,0.0611,0.0594,0.0624,0.0566,0.0575,0.0531,0.0456,0.0411,0.0448,0.0279,0.0275,0.0254,0.029,0.0254,0.0181,0.0293,0.0292,0.0291,0,0.022,0.027,0.0341,0.0438,0.0459,0.0502,0.0578,0.0627,0.0692,0.0717,0.0742,0.0737,0.0727,0.0651,0.0531,0.0556,0.0446,0.0368,0.0362,0.0301,0.0248,0.0149,0.0167,0.0281,0.0282,0.0283,0.0284,0,0.02,0.0303,0.0354,0.0387,0.0489,0.0523,0.0575,0.0649,0.0717,0.0784,0.0844,0.082,0.082,0.0686,0.0553,0.0533,0.0401,0.0348,0.0227,0.0225,0.0138,0.0129,0.0232,0.0232,0.0232,0.0232,0.0233,0,0.0222,0.0268,0.0346,0.0377,0.0455,0.0522,0.0615,0.0667,0.0775,0.0883,0.089,0.096,0.082,0.0752,0.0592,0.0415,0.0425,0.0244,0.0203,0.0179,0.0175,0.0209,0.0207,0.0229,0.023,0.0231,0.0231,0,0.0195,0.0243,0.0311,0.0408,0.0445,0.0492,0.065,0.0741,0.0823,0.0963,0.0999,0.1057,0.0967,0.0818,0.0615,0.0474,0.0298,0.0221,0.022,0.0181,0.0143,0.0148,0.0078,0.0076,0.0075,0.0074,0.0074,0,0.019,0.0217,0.0311,0.0368,0.0413,0.0513,0.0612,0.0738,0.0856,0.1031,0.111,0.1098,0.1113,0.0842,0.0567,0.0294,0.0276,0.01,0.0046,0.016,0.0127,0.0134,0.014,-0.0023,-0.0025,-0.0026,-0.0027,0,0.0189,0.0202,0.0255,0.0367,0.0462,0.0605,0.0751,0.0849,0.1023,0.1147,0.1291,0.1316,0.1086,0.0811,0.0464,0.0284,0.0146,0.0067,0.0172,0.0034,0.0061,0.003,0.004,-0.0037,-0.0036,-0.0036,-0.0035,-0.0035,0.0171,0.0198,0.0271,0.0384,0.0516,0.07,0.0817,0.0991,0.1172,0.1344,0.1358,0.1355,0.1059,0.0576,0.0321,0.0058,0.0054,-0.0069,-0.0064,-0.0058,-0.0044,-0.0019,-0.0129,-0.0129,-0.0128,-0.0128,-0.0127,0,0.0174,0.0225,0.0319,0.0463,0.0632,0.0711,0.0935,0.1055,0.1259,0.1346,0.142,0.112,0.0834,0.0544,0.0112,-0.0126,-0.0128,-0.0171,-0.0155,-0.0146,-0.0137,-0.0124,-0.0232,-0.0232,-0.0232,-0.0232,0,0,0.0178,0.0248,0.0305,0.0552,0.0687,0.0905,0.1039,0.1181,0.1269,0.134,0.1306,0.1187,0.0846,0.0503,0.0178,-0.0025,-0.0009,-0.0045,0.0048,0.011,0.0123,-0.0088,-0.0059,0,0,0,0,0]}],[{"header":{"parameterUnit":"m.s-1","parameterCategory":2,"la1":30.2991,"la2":30.254,"lo1":-89.0895,"lo2":-89.0444,"dy":0.0017,"dx":0.0017,"nx":28,"ny":28,"refTime":"2025-06-19T21:00:00:Z","depth":"4","parameterNumber":2,"parameterNumberName":"U-component_of_CURRENTS"},"data":[0,0,0,0,0,0,0,0,0,0,0,0,0,0,0,0,0,0,0,0,0,0,0,0,0,0,0,0,0,0,0,0,0,0,0,0,0,0,0,0,0,0,0,0,0,0,0,0,0,0,0,0,0,0,0,0,0,0,0.0112,0.0113,0,0.02,0.0201,0.0202,0.0295,0.0296,0.0298,0.0299,0.033,0.0329,0.0329,0,0,0,0,0,0,0,0,0,0,0,0,0,0.0007,0.0008,0.0112,0.0113,0.0114,0.02,0.0201,0.0202,0.0295,0.0296,0.0298,0.03,0.033,0.0329,0.0329,0,0,0,0,0,0,0,0,0,0,0,0,0,0.0068,0.0009,0.0111,0.0172,0.0178,0.02,0.0201,0.0202,0.0294,0.0296,0.0298,0.03,0.033,0.0329,0.0329,0.0281,0,0,0.0326,0.0326,0,0,0,0,0,0,0,0,0.0064,0.0072,0.0162,0.0168,0.0175,0.024,0.0176,0.0226,0.0294,0.0248,0.0299,0.0302,0.0294,0.0296,0.0307,0.0282,0.0284,0.0326,0.0326,0.0325,0.0325,0,0,0,0,0,0,0,0.006,0.0068,0.0145,0.0163,0.0171,0.0189,0.02,0.0186,0.0256,0.0253,0.026,0.0271,0.0297,0.0307,0.0308,0.0284,0.0326,0.0326,0.0325,0.0325,0.0329,0.033,0,0,0,0,0,0,0.0051,0.0064,0.0142,0.0148,0.0125,0.0189,0.0202,0.0216,0.0257,0.0267,0.0269,0.0275,0.0307,0.0309,0.0309,0.0384,0.0325,0.0325,0.0324,0.0329,0.0329,0.033,0,0,0,0,0,0,0.0048,0.0057,0.0139,0.0109,0.0121,0.0189,0.0204,0.0216,0.0287,0.0271,0.028,0.0335,0.0309,0.031,0.0346,0.038,0.0324,0.0324,0.0328,0.0329,0.033,0.0449,0,0,0,0,0,0,0.0045,0.0055,0.0085,0.0108,0.0123,0.0192,0.0202,0.0216,0.0288,0.0298,0.0328,0.033,0.0311,0.0348,0.0346,0.0378,0.0323,0.0327,0.0328,0.033,0.0444,0.0454,0.0462,0,0,0,0,0,0.0041,0.0065,0.0086,0.0097,0.0154,0.0193,0.0204,0.0256,0.029,0.0328,0.0349,0.0333,0.0352,0.0348,0.0345,0.0379,0.0327,0.0328,0.0329,0.044,0.0452,0.0462,0,0,0,0,0,0,0.0044,0.0077,0.0101,0.0139,0.0183,0.0211,0.0256,0.0288,0.0336,0.0363,0.0347,0.035,0.0391,0.0362,0.0357,0.0378,0.0333,0.0334,0.0418,0.0429,0.0437,0.0472,0.0322,0,0,0,0,0,0.0054,0.0082,0.0118,0.0157,0.0185,0.0231,0.0265,0.0304,0.0336,0.0365,0.0391,0.0395,0.0381,0.0393,0.0383,0.04,0.034,0.0413,0.0422,0.043,0.0454,0.0364,0.0367,0.0334,0.0334,0.0334,0,0,0.0064,0.009,0.0107,0.0161,0.0203,0.0254,0.026,0.0331,0.0382,0.0354,0.045,0.0437,0.0392,0.0416,0.0429,0.0407,0.0409,0.0432,0.044,0.0459,0.0366,0.0369,0.0372,0.0335,0.0335,0.0335,0,0,0.0093,0.013,0.0168,0.0211,0.0284,0.0307,0.0341,0.0409,0.0457,0.0526,0.0505,0.0514,0.0537,0.0497,0.0473,0.0518,0.0459,0.0525,0.0604,0.0517,0.0519,0.052,0.0456,0.0451,0.0529,0.053,0.053,0,0.0116,0.0165,0.0188,0.0245,0.0293,0.034,0.0405,0.0444,0.0522,0.0549,0.0582,0.0588,0.0564,0.0534,0.057,0.0539,0.0497,0.0572,0.0529,0.0529,0.0528,0.0462,0.0455,0.0535,0.0535,0.0534,0.0534,0,0.0166,0.023,0.0263,0.0343,0.0392,0.046,0.0511,0.0578,0.0645,0.0673,0.0715,0.0686,0.069,0.0672,0.0653,0.0631,0.0607,0.0551,0.0507,0.0539,0.0467,0.0457,0.0544,0.0542,0.054,0.0539,0,0,0.0168,0.0276,0.03,0.0358,0.0458,0.0501,0.0584,0.065,0.0697,0.0771,0.0811,0.0808,0.0819,0.0792,0.0748,0.0688,0.0654,0.0655,0.0647,0.0603,0.0494,0.0529,0.052,0.0602,0.0601,0.06,0.045,0,0.0219,0.0328,0.0372,0.0492,0.0554,0.0617,0.0679,0.0742,0.0796,0.0844,0.0817,0.0849,0.085,0.0868,0.0815,0.0685,0.0634,0.0702,0.0462,0.0455,0.049,0.0511,0.0597,0.0442,0.0439,0.0437,0.0436,0,0.0264,0.0332,0.0452,0.0565,0.06,0.0679,0.0781,0.0842,0.0884,0.0929,0.0958,0.0951,0.0917,0.0899,0.0735,0.079,0.0687,0.0576,0.0565,0.0555,0.0472,0.0398,0.0417,0.0418,0.042,0.0421,0.0422,0,0.0246,0.039,0.0488,0.0536,0.0661,0.0737,0.0812,0.0882,0.0916,0.0993,0.1011,0.0992,0.0964,0.0852,0.0677,0.073,0.0435,0.0452,0.0375,0.0375,0.0334,0.0334,0.0328,0.0329,0.0329,0.0329,0.033,0,0.0267,0.035,0.0503,0.0557,0.066,0.0765,0.0855,0.0926,0.099,0.0967,0.1067,0.0981,0.0955,0.0788,0.0663,0.0477,0.0419,0.0409,0.0343,0.0388,0.0396,0.0327,0.0329,0.0324,0.0325,0.0326,0.0327,0,0.0226,0.033,0.0438,0.0601,0.0654,0.0737,0.0868,0.0896,0.1005,0.097,0.1003,0.0974,0.0829,0.0728,0.0486,0.0445,0.0249,0.0174,0.022,0.0155,0.0277,0.0286,0.0186,0.0186,0.0186,0.0186,0.0186,0,0.0212,0.0272,0.0443,0.0484,0.057,0.0695,0.074,0.0887,0.0882,0.0868,0.0795,0.0747,0.07,0.042,0.0316,0.0169,0.0138,0.0085,0.0261,0.0319,0.0264,0.0274,0.0283,0.0186,0.0186,0.0186,0.0186,0,0.0164,0.0242,0.0311,0.0392,0.0474,0.0537,0.0616,0.0608,0.0689,0.0782,0.0665,0.0635,0.0472,0.0382,0.0291,0.013,0.0174,0.0088,0.0091,0.0256,0.0317,0.0265,0.0274,0.0186,0.0186,0.0186,0.0186,0,0.0118,0.0137,0.0217,0.0285,0.0355,0.0359,0.0422,0.0441,0.0494,0.0552,0.0428,0.0381,0.0386,0.0337,0.0141,0.0139,0.0208,0.0242,0.0239,0.0238,0.0332,0.0422,0.0279,0,0,0,0,0,0.0072,0.0066,0.0092,0.0153,0.0206,0.0272,0.0308,0.0358,0.0415,0.0364,0.046,0.0328,0.0282,0.0198,0.0217,0.0121,0.0144,0.0137,0.0166,0.0188,0.0187,0.0296,0,0,0,0,0,0,0.0029,0.0046,0.0049,0.0027,0.006,0.0109,0.0149,0.0182,0.0188,0.0262,0.0233,0.0362,0.0286,0.0302,0.0229,0.0219,0.0245,0.0152,0.0153,0.0188,0.0188,0.0187,0.0299,0,0,0,0,0]},{"header":{"parameterUnit":"m.s-1","parameterCategory":2,"la1":30.2991,"la2":30.254,"lo1":-89.0895,"lo2":-89.0444,"dy":0.0017,"dx":0.0017,"nx":28,"ny":28,"refTime":"2025-06-19T21:00:00:Z","depth":"4","parameterNumber":3,"parameterNumberName":"V-component_of_CURRENTS"},"data":[0,0,0,0,0,0,0,0,0,0,0,0,0,0,0,0,0,0,0,0,0,0,0,0,0,0,0,0,0,0,0,0,0,0,0,0,0,0,0,0,0,0,0,0,0,0,0,0,0,0,0,0,0,0,0,0,0,0,0.0079,0.0078,0,-0.0052,-0.0054,-0.0055,-0.0134,-0.0134,-0.0134,-0.0134,-0.0322,-0.0327,-0.0331,0,0,0,0,0,0,0,0,0,0,0,0,0,0.0177,0.0176,0.0079,0.0078,0.0077,-0.0052,-0.0054,-0.0056,-0.0134,-0.0134,-0.0134,-0.0134,-0.032,-0.0326,-0.0332,0,0,0,0,0,0,0,0,0,0,0,0,0,0.0096,0.0176,0.008,0.0025,0.0019,-0.0051,-0.0054,-0.0056,-0.0134,-0.0134,-0.0134,-0.0134,-0.0318,-0.0325,-0.0333,-0.0378,0,0,-0.0355,-0.0359,0,0,0,0,0,0,0,0,0.0101,0.0092,0.0034,0.0029,0.0022,-0.0074,-0.0088,-0.0165,-0.0134,-0.008,-0.0134,-0.0134,-0.0242,-0.0255,-0.0284,-0.0386,-0.0394,-0.0356,-0.0361,-0.0364,-0.0366,0,0,0,0,0,0,0,0.0107,0.0097,0.0024,0.0033,0.0025,-0.0022,-0.0033,-0.0103,-0.0163,-0.0085,-0.009,-0.0099,-0.0246,-0.0277,-0.0289,-0.0397,-0.0356,-0.0362,-0.0367,-0.037,-0.059,-0.0591,0,0,0,0,0,0,0.0135,0.0103,0.0028,0.002,0.0066,-0.0023,-0.0036,-0.0046,-0.0161,-0.0177,-0.0098,-0.0102,-0.0264,-0.028,-0.0296,-0.0398,-0.0364,-0.0371,-0.0375,-0.0589,-0.059,-0.0592,0,0,0,0,0,0,0.0137,0.0129,0.0033,0.0061,0.0046,-0.0023,-0.0035,-0.0048,-0.0098,-0.017,-0.0188,-0.0135,-0.0265,-0.0286,-0.0383,-0.0404,-0.0374,-0.0381,-0.0587,-0.0589,-0.0591,-0.0576,0,0,0,0,0,0,0.014,0.0131,0.0119,0.0063,0.0046,-0.0025,-0.0035,-0.0051,-0.01,-0.0107,-0.0208,-0.0224,-0.0266,-0.0372,-0.039,-0.0414,-0.0387,-0.0585,-0.0588,-0.0591,-0.0574,-0.0577,-0.0579,0,0,0,0,0,0.0144,0.0127,0.0119,0.0109,0.0037,-0.0026,-0.0041,-0.0093,-0.0102,-0.0136,-0.0203,-0.0222,-0.04,-0.038,-0.0401,-0.0427,-0.0584,-0.0587,-0.059,-0.0573,-0.0576,-0.0579,0,0,0,0,0,0,0.0152,0.0116,0.0106,0.0076,0.0025,-0.0039,-0.0073,-0.0102,-0.0181,-0.0192,-0.0253,-0.0276,-0.0368,-0.0403,-0.0377,-0.0498,-0.0491,-0.0498,-0.047,-0.0474,-0.0476,-0.0453,-0.0393,0,0,0,0,0,0.0156,0.0136,0.009,0.0061,0.0041,-0.0017,-0.0051,-0.0087,-0.0153,-0.0189,-0.0254,-0.0324,-0.0396,-0.0438,-0.0509,-0.0581,-0.0585,-0.0608,-0.061,-0.0612,-0.0608,-0.0647,-0.0652,-0.0602,-0.0602,-0.0602,0,0,0.0149,0.0128,0.0114,0.0062,0.0021,-0.0028,-0.004,-0.0099,-0.0148,-0.0198,-0.0291,-0.0346,-0.042,-0.0501,-0.0543,-0.0534,-0.0623,-0.0616,-0.0617,-0.0612,-0.0651,-0.0655,-0.0659,-0.0604,-0.0604,-0.0604,0,0,0.0128,0.011,0.0086,0.0045,-0.0012,-0.005,-0.0066,-0.0138,-0.0178,-0.0263,-0.031,-0.0377,-0.0486,-0.054,-0.058,-0.064,-0.064,-0.0658,-0.0649,-0.0686,-0.069,-0.0693,-0.0673,-0.0675,-0.0651,-0.0651,-0.0651,0,0.0119,0.009,0.0063,0.0024,-0.0009,-0.0057,-0.0101,-0.0156,-0.0254,-0.0284,-0.0293,-0.0443,-0.0503,-0.0596,-0.0608,-0.0645,-0.0642,-0.0629,-0.0687,-0.069,-0.0694,-0.0673,-0.0675,-0.0651,-0.0651,-0.0651,-0.0651,0,0.0081,0.0049,0.0028,-0.0028,-0.0073,-0.012,-0.0181,-0.0233,-0.0272,-0.0318,-0.0412,-0.0488,-0.0555,-0.0595,-0.062,-0.0681,-0.0661,-0.0688,-0.0671,-0.0698,-0.0674,-0.0677,-0.065,-0.065,-0.065,-0.065,0,0,0.009,0.0018,0.0012,-0.0013,-0.0099,-0.0132,-0.021,-0.028,-0.0308,-0.04,-0.0446,-0.0558,-0.0562,-0.0606,-0.0647,-0.0689,-0.0701,-0.0687,-0.0689,-0.065,-0.0737,-0.0666,-0.0662,-0.0734,-0.0736,-0.0737,-0.0697,0,0.0069,0.0012,-0.0026,-0.0092,-0.0127,-0.0184,-0.0236,-0.0306,-0.036,-0.0419,-0.0497,-0.0541,-0.0577,-0.0576,-0.0637,-0.0707,-0.0712,-0.0706,-0.0731,-0.0731,-0.0653,-0.0665,-0.0741,-0.0699,-0.0699,-0.07,-0.07,0,0.0049,0.0017,-0.0027,-0.0095,-0.0111,-0.0129,-0.019,-0.0242,-0.0334,-0.0369,-0.0435,-0.0493,-0.0572,-0.0578,-0.0688,-0.0679,-0.0685,-0.073,-0.073,-0.0673,-0.0667,-0.0678,-0.0705,-0.0704,-0.0704,-0.0704,-0.0703,0,0.0089,0.0013,-0.0005,-0.0032,-0.011,-0.01,-0.0115,-0.0191,-0.0209,-0.0285,-0.0308,-0.0436,-0.0463,-0.0546,-0.0618,-0.0646,-0.072,-0.077,-0.0705,-0.0698,-0.0777,-0.0775,-0.0799,-0.0799,-0.0799,-0.08,-0.08,0,0.0078,0.0055,0.0046,0.0037,0.006,-0.0006,0.0026,-0.0022,-0.0069,-0.0118,-0.022,-0.03,-0.0454,-0.0533,-0.0601,-0.0646,-0.0688,-0.0693,-0.0692,-0.0768,-0.0765,-0.0776,-0.0774,-0.0798,-0.0798,-0.0799,-0.0799,0,0.01,0.0079,0.0076,0.0065,0.0091,0.0134,0.0177,0.0176,0.0129,0.0061,0.0053,-0.0159,-0.0287,-0.0398,-0.0536,-0.0587,-0.0651,-0.0629,-0.0644,-0.0646,-0.0608,-0.0606,-0.0594,-0.0592,-0.059,-0.0588,-0.0586,0,0.0087,0.01,0.0153,0.022,0.0247,0.032,0.0362,0.032,0.0279,0.0109,0.0041,-0.0075,-0.0223,-0.0341,-0.0481,-0.0546,-0.0554,-0.0547,-0.0643,-0.0591,-0.0592,-0.0593,-0.0594,-0.0583,-0.0582,-0.0582,-0.0581,0,0.0085,0.0141,0.0157,0.033,0.0424,0.0464,0.0497,0.043,0.0298,0.0288,0.0069,-0.0048,-0.0192,-0.0354,-0.0341,-0.0424,-0.0562,-0.0525,-0.0532,-0.0623,-0.0577,-0.058,-0.0584,-0.0573,-0.0574,-0.0575,-0.0576,0,0.0121,0.0167,0.0272,0.0405,0.0553,0.0547,0.0513,0.0431,0.0382,0.0139,0.0066,-0.0107,-0.02,-0.0289,-0.0333,-0.0349,-0.0401,-0.0426,-0.044,-0.045,-0.0434,-0.0356,-0.0275,0,0,0,0,0,0.0171,0.0234,0.0345,0.0468,0.0619,0.0694,0.0582,0.0485,0.0299,0.0186,0.013,-0.0002,-0.0138,-0.0243,-0.0244,-0.0334,-0.042,-0.034,-0.0458,-0.0531,-0.054,-0.0542,0,0,0,0,0,0,0.0197,0.0316,0.0338,0.0528,0.0642,0.0745,0.0649,0.0474,0.0364,0.0196,0.0126,0.0107,-0.0021,-0.0031,-0.0172,-0.0197,-0.0267,-0.0385,-0.0385,-0.0526,-0.0534,-0.0541,-0.0546,0,0,0,0,0]}]]